[[{"header":{"parameterUnit":"m.s-1","parameterCategory":1,"la1":30.2991,"la2":30.254,"lo1":-89.0895,"lo2":-89.0444,"dy":0.0017,"dx":0.0017,"nx":28,"ny":28,"refTime":"2025-01-13T03:00:00:Z","depth":0,"parameterNumber":2,"parameterNumberName":"U-component_of_WINDS"},"data":[0,0,0,0,0,0,0,0,0,0,0,0,0,0,0,0,0,0,0,0,0,0,0,0,0,0,0,0,0,0,0,0,0,0,0,0,0,0,0,0,0,0,0,0,0,0,0,0,0,0,0,0,0,0,0,0,0,0,-6.6154,-6.6155,0,-6.6203,-6.6204,-6.6204,-6.6028,-6.6023,-6.6017,-6.6012,-6.6065,-6.6071,-6.6077,0,0,0,0,0,0,0,0,0,0,0,0,0,-6.5911,-6.5916,-6.6154,-6.6155,-6.6156,-6.6203,-6.6204,-6.6204,-6.6029,-6.6022,-6.6016,-6.601,-6.6063,-6.607,-6.6078,0,0,0,0,0,0,0,0,0,0,0,0,0,-6.5994,-6.5918,-6.6154,-6.6074,-6.6067,-6.6203,-6.6204,-6.6204,-6.603,-6.6022,-6.6014,-6.6007,-6.606,-6.6069,-6.6079,-6.6295,0,0,-6.6108,-6.6112,0,0,0,0,0,0,0,0,-6.599,-6.6003,-6.6085,-6.6079,-6.6072,-6.6101,-6.6137,-6.6235,-6.6032,-6.6044,-6.6012,-6.6003,-6.6083,-6.609,-6.6117,-6.6298,-6.63,-6.6108,-6.6114,-6.6118,-6.6121,0,0,0,0,0,0,0,-6.5984,-6.6,-6.6173,-6.6086,-6.6079,-6.6035,-6.6039,-6.6155,-6.6108,-6.6043,-6.603,-6.6038,-6.6078,-6.6108,-6.6117,-6.6301,-6.6108,-6.6117,-6.6122,-6.6126,-6.6662,-6.667,0,0,0,0,0,0,-6.5989,-6.5996,-6.6172,-6.6175,-6.601,-6.6046,-6.605,-6.61,-6.6106,-6.6099,-6.6045,-6.6029,-6.6096,-6.6106,-6.6118,-6.6373,-6.6118,-6.6127,-6.6133,-6.6653,-6.6664,-6.6673,0,0,0,0,0,0,-6.5984,-6.6006,-6.617,-6.6082,-6.61,-6.6059,-6.6117,-6.6105,-6.6135,-6.6107,-6.6098,-6.6084,-6.609,-6.6105,-6.6252,-6.6372,-6.6131,-6.614,-6.6643,-6.6657,-6.6668,-6.6884,0,0,0,0,0,0,-6.5978,-6.6005,-6.6087,-6.6085,-6.6105,-6.6304,-6.6124,-6.6112,-6.6151,-6.6132,-6.6142,-6.6136,-6.6085,-6.6239,-6.6262,-6.6381,-6.6147,-6.6632,-6.6649,-6.6664,-6.6866,-6.6902,-6.6934,0,0,0,0,0,-6.597,-6.6146,-6.6092,-6.6114,-6.6206,-6.6311,-6.6322,-6.626,-6.6162,-6.6244,-6.6226,-6.6135,-6.6355,-6.6256,-6.628,-6.6403,-6.6625,-6.6644,-6.6663,-6.6851,-6.6895,-6.6933,0,0,0,0,0,0,-6.6164,-6.6145,-6.6084,-6.6265,-6.6291,-6.6281,-6.6383,-6.6309,-6.6364,-6.6344,-6.6264,-6.6268,-6.643,-6.6431,-6.6321,-6.6613,-6.6473,-6.6498,-6.6607,-6.6649,-6.6683,-6.668,-6.6155,0,0,0,0,0,-6.6228,-6.6314,-6.6292,-6.6454,-6.647,-6.6425,-6.6468,-6.6417,-6.6441,-6.6451,-6.6444,-6.6472,-6.6546,-6.6597,-6.6665,-6.6864,-6.6864,-6.6961,-6.6995,-6.7023,-6.7046,-6.7152,-6.7195,-6.6736,-6.6736,-6.6736,0,0,-6.6361,-6.6361,-6.642,-6.6493,-6.6507,-6.6599,-6.6435,-6.6539,-6.6606,-6.6467,-6.6606,-6.6602,-6.6627,-6.6802,-6.6879,-6.6808,-6.7172,-6.7047,-6.707,-6.7078,-6.7177,-6.722,-6.7259,-6.6749,-6.6747,-6.6745,0,0,-6.665,-6.6658,-6.6794,-6.6811,-6.6834,-6.6802,-6.6835,-6.6837,-6.6828,-6.6966,-6.6864,-6.6943,-6.7074,-6.7096,-6.7124,-6.7421,-6.7341,-6.7445,-6.7623,-6.7728,-6.7764,-6.7796,-6.7903,-6.7942,-6.7468,-6.7469,-6.7469,0,-6.6813,-6.6946,-6.6874,-6.6984,-6.702,-6.6897,-6.7035,-6.7055,-6.7099,-6.7127,-6.7046,-6.7207,-6.7216,-6.7394,-6.7467,-6.7493,-6.7529,-6.7445,-6.7764,-6.7796,-6.7824,-6.7926,-6.7966,-6.7481,-6.748,-6.7479,-6.7477,0,-6.7145,-6.7239,-6.7346,-6.7392,-6.7439,-6.7563,-6.751,-6.7566,-6.7511,-6.7489,-6.7631,-6.7636,-6.7703,-6.7741,-6.7689,-6.7913,-6.7868,-6.7778,-6.7635,-6.7882,-6.7976,-6.8014,-6.75,-6.7495,-6.7491,-6.7488,0,0,-6.756,-6.7563,-6.7603,-6.7623,-6.7638,-6.771,-6.7828,-6.7892,-6.7943,-6.7977,-6.8075,-6.8188,-6.8104,-6.8137,-6.8085,-6.8177,-6.8414,-6.8075,-6.8074,-6.8139,-6.8662,-6.8732,-6.8778,-6.8359,-6.8366,-6.8372,-6.866,0,-6.7845,-6.8047,-6.7985,-6.8189,-6.8275,-6.8159,-6.8262,-6.8283,-6.8265,-6.8336,-6.8315,-6.8397,-6.828,-6.8299,-6.8384,-6.8367,-6.8518,-6.8345,-6.8451,-6.8456,-6.845,-6.8826,-6.89,-6.9172,-6.8696,-6.8703,-6.8707,0,-6.8205,-6.8253,-6.8466,-6.8467,-6.85,-6.8594,-6.8648,-6.8717,-6.8739,-6.8719,-6.8756,-6.8685,-6.8802,-6.8658,-6.8818,-6.8702,-6.8741,-6.8739,-6.8748,-6.8757,-6.8598,-6.8847,-6.9257,-6.9299,-6.8764,-6.8759,-6.8755,0,-6.8488,-6.8606,-6.8748,-6.8768,-6.8772,-6.8841,-6.8846,-6.886,-6.8902,-6.8949,-6.8976,-6.9037,-6.9071,-6.912,-6.9068,-6.8967,-6.9237,-6.9088,-6.9225,-6.9227,-6.9288,-6.9285,-6.9712,-6.9311,-6.9311,-6.931,-6.9309,0,-6.8814,-6.8949,-6.8875,-6.8963,-6.9111,-6.9038,-6.9186,-6.9178,-6.9192,-6.9276,-6.9179,-6.9261,-6.9187,-6.9262,-6.9222,-6.9362,-6.9377,-6.9366,-6.9354,-6.9376,-6.9378,-6.9402,-6.9382,-6.9321,-6.9318,-6.9316,-6.9314,0,-6.9156,-6.9112,-6.9259,-6.9251,-6.9252,-6.9362,-6.9355,-6.9436,-6.941,-6.9519,-6.954,-6.95,-6.9584,-6.9536,-6.9622,-6.9595,-6.9777,-6.9738,-6.977,-6.976,-6.99,-6.9889,-7.0359,-7.0418,-6.9978,-6.9982,-6.9986,0,-6.9368,-6.9469,-6.9471,-6.952,-6.9532,-6.9613,-6.9655,-6.9588,-6.9636,-6.9668,-6.9746,-6.9821,-6.9878,-7.0017,-6.9996,-7.0061,-7.0025,-7.0185,-7.0034,-7.0053,-7.0029,-7.0024,-7.0035,-7.0216,-7.0221,-7.0226,-7.0229,0,-6.9749,-6.9722,-6.9786,-6.9845,-6.9898,-6.994,-6.9975,-7.0021,-6.9953,-7.0013,-7.0097,-7.014,-7.0227,-7.0304,-7.0359,-7.0365,-7.0288,-7.0276,-7.0312,-7.0336,-7.0351,-7.0346,-6.9855,-7.0266,-7.0263,-7.026,-7.0258,-7.0256,-7.0033,-7.0117,-7.0132,-7.0208,-7.0226,-7.0261,-7.0337,-7.032,-7.0388,-7.0454,-7.0409,-7.0509,-7.0528,-7.0594,-7.061,-7.0687,-7.0623,-7.0674,-7.0687,-7.0701,-7.0721,-7.0337,-7.0697,-7.0696,-7.0695,-7.0694,-7.0693,0,-7.041,-7.0414,-7.0484,-7.0534,-7.0594,-7.0514,-7.0547,-7.0603,-7.0692,-7.0715,-7.0773,-7.087,-7.0943,-7.0927,-7.0994,-7.1059,-7.1025,-7.1079,-7.1074,-7.1077,-7.0774,-7.0738,-7.1105,-7.1105,-7.1105,-7.1105,-7.1105,-7.1105,-7.0613,-7.0752,-7.0727,-7.0874,-7.0877,-7.0973,-7.0999,-7.1031,-7.1049,-7.1161,-7.1221,-7.121,-7.1219,-7.1285,-7.1349,-7.1342,-7.1372,-7.144,-7.1421,-7.1139,-7.1098,-7.1059,-7.1025,-7.1446,-7.1447,-7.1717,-7.172,-7.1722]},{"header":{"parameterUnit":"m.s-1","parameterCategory":1,"la1":30.2991,"la2":30.254,"lo1":-89.0895,"lo2":-89.0444,"dy":0.0017,"dx":0.0017,"nx":28,"ny":28,"refTime":"2025-01-13T03:00:00:Z","depth":0,"parameterNumber":3,"parameterNumberName":"V-component_of_WINDS"},"data":[0,0,0,0,0,0,0,0,0,0,0,0,0,0,0,0,0,0,0,0,0,0,0,0,0,0,0,0,0,0,0,0,0,0,0,0,0,0,0,0,0,0,0,0,0,0,0,0,0,0,0,0,0,0,0,0,0,0,-4.3826,-4.3827,0,-4.3851,-4.3851,-4.3851,-4.3816,-4.3815,-4.3814,-4.3813,-4.3836,-4.3837,-4.3839,0,0,0,0,0,0,0,0,0,0,0,0,0,-4.3747,-4.3749,-4.3826,-4.3827,-4.3827,-4.3851,-4.3851,-4.3851,-4.3817,-4.3815,-4.3814,-4.3812,-4.3835,-4.3837,-4.3839,0,0,0,0,0,0,0,0,0,0,0,0,0,-4.3778,-4.3749,-4.3826,-4.3813,-4.3812,-4.385,-4.3851,-4.3851,-4.3817,-4.3815,-4.3813,-4.3812,-4.3834,-4.3837,-4.384,-4.3892,0,0,-4.3848,-4.3849,0,0,0,0,0,0,0,0,-4.3776,-4.378,-4.3814,-4.3814,-4.3813,-4.3829,-4.3831,-4.3865,-4.3817,-4.3815,-4.3813,-4.3811,-4.3835,-4.3837,-4.3846,-4.3894,-4.3895,-4.3848,-4.3849,-4.3851,-4.3851,0,0,0,0,0,0,0,-4.3774,-4.3779,-4.3836,-4.3815,-4.3814,-4.3804,-4.3807,-4.3838,-4.3835,-4.3815,-4.3812,-4.3816,-4.3834,-4.3843,-4.3846,-4.3895,-4.3848,-4.385,-4.3852,-4.3853,-4.3984,-4.3986,0,0,0,0,0,0,-4.3774,-4.3778,-4.3835,-4.3837,-4.3789,-4.3807,-4.381,-4.3825,-4.3834,-4.3834,-4.3817,-4.3814,-4.384,-4.3843,-4.3847,-4.3907,-4.3851,-4.3853,-4.3855,-4.3982,-4.3985,-4.3987,0,0,0,0,0,0,-4.3772,-4.3779,-4.3834,-4.3807,-4.3813,-4.381,-4.3828,-4.3827,-4.3836,-4.3836,-4.3835,-4.3828,-4.3838,-4.3843,-4.3881,-4.3907,-4.3854,-4.3857,-4.398,-4.3983,-4.3986,-4.4029,0,0,0,0,0,0,-4.377,-4.3779,-4.38,-4.3807,-4.3814,-4.3869,-4.383,-4.3829,-4.3841,-4.3837,-4.3846,-4.3845,-4.3837,-4.3877,-4.3883,-4.391,-4.3859,-4.3978,-4.3981,-4.3985,-4.4025,-4.4033,-4.404,0,0,0,0,0,-4.3767,-4.3811,-4.3801,-4.3808,-4.3841,-4.3871,-4.3875,-4.3865,-4.3843,-4.3863,-4.3863,-4.3845,-4.3904,-4.3881,-4.3888,-4.3916,-4.3976,-4.398,-4.3985,-4.4022,-4.4032,-4.404,0,0,0,0,0,0,-4.3807,-4.3812,-4.3801,-4.3849,-4.386,-4.3865,-4.389,-4.3876,-4.3893,-4.3888,-4.3875,-4.3877,-4.3917,-4.3921,-4.3895,-4.3966,-4.3936,-4.3942,-4.3962,-4.3971,-4.3979,-4.3976,-4.3861,0,0,0,0,0,-4.3821,-4.3846,-4.3849,-4.3891,-4.3897,-4.3893,-4.3905,-4.3897,-4.3907,-4.3912,-4.3914,-4.3924,-4.3945,-4.3959,-4.3978,-4.4026,-4.4026,-4.4048,-4.4056,-4.4062,-4.4066,-4.409,-4.4099,-4.4001,-4.4001,-4.4001,0,0,-4.3851,-4.3857,-4.3873,-4.3899,-4.3906,-4.3931,-4.3897,-4.3925,-4.3942,-4.3916,-4.3951,-4.3953,-4.3964,-4.4006,-4.4025,-4.401,-4.4094,-4.4067,-4.4072,-4.4073,-4.4095,-4.4104,-4.4113,-4.4004,-4.4003,-4.4003,0,0,-4.3917,-4.3926,-4.396,-4.3968,-4.3979,-4.3976,-4.3984,-4.3991,-4.3992,-4.4027,-4.4007,-4.4027,-4.4064,-4.4071,-4.408,-4.4147,-4.413,-4.4154,-4.4191,-4.4214,-4.4222,-4.4228,-4.425,-4.4258,-4.4159,-4.4159,-4.4159,0,-4.3953,-4.399,-4.3979,-4.4008,-4.4019,-4.3996,-4.403,-4.4038,-4.4055,-4.4062,-4.4045,-4.4089,-4.4095,-4.4137,-4.4154,-4.4162,-4.417,-4.4152,-4.4222,-4.4228,-4.4234,-4.4255,-4.4263,-4.4161,-4.4161,-4.4161,-4.4161,0,-4.4031,-4.4057,-4.4083,-4.41,-4.4114,-4.4145,-4.4138,-4.4153,-4.4143,-4.4141,-4.4176,-4.4182,-4.4201,-4.4211,-4.4202,-4.4252,-4.4242,-4.4224,-4.4193,-4.4246,-4.4265,-4.4273,-4.4165,-4.4164,-4.4163,-4.4163,0,0,-4.4123,-4.4132,-4.4142,-4.4148,-4.4158,-4.4177,-4.4207,-4.4225,-4.4237,-4.425,-4.4273,-4.4303,-4.4286,-4.4295,-4.4287,-4.4307,-4.4357,-4.4286,-4.4286,-4.4297,-4.441,-4.4422,-4.4432,-4.4347,-4.4348,-4.435,-4.4408,0,-4.4187,-4.4238,-4.4229,-4.4278,-4.43,-4.4278,-4.4303,-4.4311,-4.431,-4.4328,-4.4326,-4.4347,-4.4324,-4.4329,-4.4349,-4.4347,-4.4379,-4.4343,-4.4366,-4.4367,-4.4362,-4.4442,-4.4455,-4.4511,-4.4416,-4.4417,-4.4418,0,-4.4269,-4.4283,-4.4334,-4.4339,-4.4348,-4.4371,-4.4385,-4.4404,-4.4412,-4.4409,-4.442,-4.4407,-4.4434,-4.4404,-4.4441,-4.4416,-4.4425,-4.4426,-4.4428,-4.4428,-4.4394,-4.4442,-4.4528,-4.4536,-4.443,-4.4429,-4.4428,0,-4.4327,-4.436,-4.4394,-4.44,-4.4407,-4.4423,-4.4427,-4.4433,-4.4444,-4.4457,-4.4464,-4.448,-4.4489,-4.4501,-4.4492,-4.4472,-4.4529,-4.4499,-4.4526,-4.4527,-4.4538,-4.4537,-4.4625,-4.4548,-4.4548,-4.4547,-4.4547,0,-4.4399,-4.443,-4.442,-4.4441,-4.4475,-4.4463,-4.4497,-4.4498,-4.4504,-4.4523,-4.4506,-4.4524,-4.4513,-4.453,-4.4524,-4.4553,-4.4558,-4.4555,-4.4553,-4.4556,-4.4556,-4.456,-4.4555,-4.455,-4.4549,-4.4549,-4.4548,0,-4.4469,-4.4464,-4.4499,-4.4503,-4.4504,-4.4529,-4.4531,-4.4549,-4.4547,-4.4571,-4.4577,-4.4572,-4.4591,-4.4584,-4.4605,-4.46,-4.4638,-4.4632,-4.4635,-4.4632,-4.4659,-4.4656,-4.4751,-4.4761,-4.468,-4.468,-4.4681,0,-4.4514,-4.4538,-4.4543,-4.4555,-4.4559,-4.4579,-4.459,-4.4579,-4.4591,-4.4601,-4.4618,-4.4636,-4.4649,-4.4681,-4.4679,-4.4694,-4.4686,-4.4719,-4.4688,-4.469,-4.4684,-4.4682,-4.4683,-4.4724,-4.4725,-4.4726,-4.4726,0,-4.4594,-4.4589,-4.4606,-4.462,-4.4633,-4.4645,-4.4655,-4.4665,-4.4655,-4.4669,-4.4688,-4.4698,-4.4719,-4.4736,-4.4749,-4.4752,-4.4737,-4.4736,-4.4743,-4.4745,-4.4745,-4.4742,-4.4649,-4.4733,-4.4733,-4.4732,-4.4732,-4.4732,-4.4651,-4.467,-4.4676,-4.4694,-4.47,-4.4709,-4.4726,-4.4725,-4.4741,-4.4756,-4.4749,-4.4771,-4.4777,-4.4793,-4.4798,-4.4814,-4.4801,-4.4811,-4.4814,-4.4816,-4.4818,-4.4744,-4.4817,-4.4816,-4.4816,-4.4816,-4.4816,0,-4.4727,-4.4729,-4.4746,-4.476,-4.4773,-4.4759,-4.4768,-4.478,-4.48,-4.4807,-4.482,-4.4841,-4.4857,-4.4856,-4.4871,-4.4884,-4.4877,-4.4888,-4.4885,-4.4886,-4.483,-4.4821,-4.4893,-4.4893,-4.4893,-4.4893,-4.4893,-4.4893,-4.4768,-4.4798,-4.4794,-4.4827,-4.4829,-4.485,-4.4856,-4.4864,-4.4869,-4.4893,-4.4906,-4.4906,-4.4909,-4.4923,-4.4937,-4.4936,-4.4941,-4.4954,-4.4951,-4.4898,-4.489,-4.4883,-4.4875,-4.4956,-4.4956,-4.5005,-4.5005,-4.5006]}]]